Wind_Speed
17 17 16 16 13 12 11 9 9 8 8 7 8 9 11 12 13 13 14 15 15 16 17 17 18 18 18 19 19 18 19 19 19 20 20 19 17 18 20 22 24 24 22 21 21 21 20 21 21 22 24 26 27 28
17 17 16 15 15 13 11 10 10 10 9 7 7 8 10 11 12 13 14 15 15 15 16 16 17 17 17 17 18 19 18 16 15 17 17 18 18 19 20 20 20 20 21 20 19 19 20 21 22 24 25 26 27 28
18 16 16 17 16 14 12 12 11 11 10 9 8 8 9 10 11 12 13 14 14 15 15 16 16 17 17 16 16 15 15 14 14 15 16 15 14 14 15 16 18 19 19 18 19 19 21 23 25 25 26 27 27 27
22 18 17 18 18 15 14 13 12 12 12 11 10 9 8 9 10 11 12 14 15 15 14 14 14 15 15 15 14 14 14 14 14 14 13 12 13 14 14 15 18 19 20 20 20 22 23 25 26 26 27 27 27 27
25 22 18 18 21 20 19 17 15 14 13 13 13 12 11 9 10 11 12 14 15 16 14 15 13 14 14 14 14 13 13 13 13 13 13 13 14 15 15 17 19 22 21 21 21 24 27 28 27 27 27 27 28 27
26 26 22 19 20 23 23 21 20 18 17 15 15 15 14 13 13 13 13 13 15 15 16 15 14 15 16 15 14 13 11 11 12 13 14 15 17 17 17 18 23 23 22 23 24 26 28 29 28 28 30 30 29 27
29 27 26 23 21 21 23 24 23 21 20 19 18 18 17 16 15 14 15 15 16 16 15 15 15 15 15 15 15 15 15 14 14 15 15 16 18 19 19 22 25 24 24 26 28 28 29 30 35 35 34 31 28 26
31 30 28 26 24 22 23 24 25 24 23 22 21 21 20 18 18 16 16 16 16 16 16 15 15 15 15 15 16 16 16 16 16 17 18 18 20 22 21 24 24 24 24 26 25 27 27 29 31 31 32 31 29 26
29 31 31 29 27 25 23 24 24 24 24 24 23 22 22 21 20 20 18 17 16 15 15 16 16 15 14 14 15 16 16 15 15 15 16 17 23 23 21 24 25 25 27 28 29 28 31 31 33 34 35 30 28 26
29 30 31 31 29 28 26 25 23 23 22 22 23 23 23 23 22 20 20 20 18 17 16 17 16 16 14 14 15 16 15 15 16 17 17 19 27 23 24 24 24 25 26 27 28 30 30 29 30 29 26 24 26 26
32 30 28 31 32 30 28 28 26 25 23 22 22 21 21 21 20 19 18 16 15 15 16 17 17 17 17 17 16 16 17 17 17 18 20 21 28 26 25 24 24 25 27 29 29 29 30 29 26 24 22 24 24 23
30 32 34 31 31 33 31 31 29 28 27 26 26 24 24 24 23 22 20 19 18 18 17 18 18 18 18 19 19 19 19 18 18 19 22 24 26 26 26 27 27 27 28 29 30 30 31 29 25 24 22 21 21 21
35 31 32 33 33 31 34 32 32 31 30 29 28 28 27 27 26 23 22 21 20 19 19 19 20 20 20 20 21 22 22 20 21 22 23 27 26 25 27 27 27 28 29 29 29 30 29 27 26 26 26 26 25 22
37 31 27 33 33 31 33 34 33 33 31 31 31 30 29 28 25 23 23 23 22 22 22 21 22 22 22 23 23 24 25 24 24 24 27 27 27 27 28 28 28 29 29 30 30 30 29 26 24 26 26 26 24 21
39 37 33 30 33 33 31 35 34 34 33 32 32 32 30 28 26 25 25 25 25 24 24 24 25 25 24 25 25 26 28 28 28 29 29 30 30 30 31 31 29 30 30 30 29 29 26 21 20 22 24 22 19 19
37 36 33 28 28 32 33 35 35 35 33 33 33 32 30 29 29 28 28 28 28 27 27 27 28 27 27 26 25 28 29 29 31 33 33 32 32 32 32 33 31 31 31 31 30 28 24 22 20 22 23 23 23 23
36 36 31 29 28 29 31 34 35 35 35 33 30 31 31 32 31 31 30 29 29 28 29 29 29 29 27 27 26 27 31 33 34 35 34 34 35 34 33 34 34 33 32 31 30 28 27 26 23 22 22 22 23 21
37 37 34 27 26 25 28 31 34 33 30 26 30 33 34 33 32 30 29 28 28 28 29 29 29 27 26 27 30 32 32 35 35 35 36 36 34 33 33 34 37 35 33 34 33 31 28 29 28 23 24 24 23 22
37 34 30 31 26 23 24 26 27 26 25 27 30 31 30 29 29 28 28 28 28 29 29 26 27 24 29 32 32 33 34 36 38 37 35 35 35 35 35 37 36 36 36 35 32 30 30 30 28 27 26 24 22 24
36 34 35 39 35 26 22 19 21 22 23 25 27 27 26 26 26 26 26 26 27 26 25 25 27 29 30 31 34 37 39 38 37 37 37 38 40 39 36 35 36 33 33 31 31 29 30 32 32 33 28 25 23 18
33 30 31 31 37 31 21 21 20 22 23 24 24 23 23 23 23 24 24 24 24 25 26 25 26 31 34 34 33 32 34 38 39 41 41 41 39 40 39 36 36 31 28 28 28 29 26 26 35 33 20 20 18 16
28 26 23 26 26 26 21 18 21 24 24 23 22 22 22 22 21 21 21 22 24 26 24 27 30 28 28 30 31 35 38 40 41 40 39 39 36 36 39 38 34 32 28 25 26 26 26 27 21 29 24 20 22 22
28 27 24 23 19 21 20 20 22 23 23 22 21 21 20 19 19 19 21 22 23 25 24 24 25 27 29 31 33 34 33 33 34 36 36 35 34 34 34 31 31 29 27 24 26 28 25 21 16 19 21 19 20 21
27 27 26 25 27 22 25 25 24 21 20 19 20 19 19 19 19 21 24 24 23 23 23 24 25 26 26 26 25 24 22 21 23 25 25 24 25 24 23 22 22 22 25 25 24 23 23 23 21 18 20 18 23 19
27 28 27 22 19 26 25 22 25 26 21 20 20 21 21 22 23 23 21 20 22 22 23 20 19 19 18 16 14 9 14 16 17 18 19 19 17 15 13 13 16 18 22 23 22 20 20 23 25 27 30 30 26 23
25 26 25 24 22 16 14 14 12 14 18 20 20 19 17 16 17 17 18 18 19 17 15 15 13 12 10 8 8 11 14 16 17 15 14 15 15 13 10 11 12 16 18 19 19 22 22 19 18 19 18 23 22 21
28 26 24 22 17 17 16 14 11 11 11 11 11 11 11 12 13 14 14 13 13 12 11 10 12 12 12 12 13 15 17 17 18 17 16 16 17 16 13 12 12 14 13 15 20 22 23 19 19 20 20 22 23 23
24 21 19 19 21 20 17 14 11 9 9 8 7 8 9 11 12 12 10 11 11 11 12 13 14 12 13 16 18 21 21 19 17 16 17 20 19 17 16 18 23 23 20 17 17 16 17 17 19 20 22 22 23 24
20 22 19 18 18 16 14 11 8 7 8 9 10 11 11 12 11 8 8 10 10 9 9 8 8 12 16 20 20 20 21 22 23 23 24 23 23 23 22 22 21 16 18 19 18 18 17 19 19 21 21 21 23 25
15 17 19 17 15 12 10 11 10 10 10 9 9 9 8 5 3 5 9 11 14 16 14 15 17 18 19 21 23 24 23 23 23 24 25 25 24 23 22 21 19 16 15 17 20 21 22 23 23 22 23 23 25 25
15 15 14 13 12 12 10 8 7 7 7 7 6 5 5 5 6 8 10 9 10 11 14 17 18 18 18 19 19 18 20 22 21 22 24 25 25 25 25 25 23 21 19 19 21 21 21 22 22 24 24 26 27 27
13 13 12 10 9 8 8 9 9 8 6 5 5 4 4 3 3 5 6 7 9 9 12 14 15 18 18 19 21 22 22 23 24 24 25 23 24 23 21 23 24 24 21 20 20 21 21 22 23 23 24 24 24 25
12 12 12 12 13 12 11 11 10 9 7 5 3 3 2 2 2 3 4 4 6 10 14 16 17 18 18 17 17 19 19 19 19 20 20 20 20 20 19 19 20 21 21 23 22 20 20 21 21 21 23 25 26 27
Wind_Direction
273 274 272 275 257 258 256 262 261 256 253 246 237 232 226 226 222 215 213 212 212 212 213 217 217 221 221 223 227 231 237 239 240 245 249 252 253 252 255 259 262 263 265 268 272 275 279 285 287 286 287 290 293 296
271 271 265 263 256 247 246 252 260 251 250 248 240 234 229 224 218 215 214 211 211 212 213 219 222 224 226 228 230 232 235 239 241 246 248 251 253 253 254 253 256 258 262 264 269 275 281 284 285 289 292 294 296 299
261 268 260 252 252 242 238 247 250 251 249 245 240 236 229 223 218 218 216 214 213 215 216 221 224 226 227 228 229 233 241 247 248 249 250 250 246 244 247 251 255 260 265 272 279 286 288 288 290 293 293 295 297 300
251 259 261 249 245 239 237 243 246 248 248 245 241 239 232 226 222 217 214 213 214 214 214 218 222 224 226 228 233 240 247 251 251 251 246 241 244 251 255 259 267 270 274 281 286 287 287 285 288 289 291 293 296 297
245 247 257 252 243 240 240 243 245 245 248 245 243 240 238 232 228 222 218 216 216 216 217 219 219 223 226 230 237 243 247 250 251 246 244 246 251 256 262 267 270 272 280 285 288 286 285 286 288 287 288 290 292 294
243 241 243 253 248 243 240 241 243 243 245 245 243 240 239 238 234 229 223 222 223 224 224 224 223 226 230 233 238 241 246 247 244 244 248 253 259 265 268 271 271 276 285 290 289 289 291 291 289 290 292 291 289 290
243 241 240 244 252 248 243 239 240 241 241 243 243 241 237 236 231 229 228 228 226 226 226 227 227 228 232 235 240 246 249 252 255 258 259 262 266 269 270 269 280 289 289 288 289 293 293 291 291 291 293 289 287 290
243 240 240 242 246 249 245 241 238 238 238 240 241 240 235 232 231 229 229 228 227 228 228 228 226 226 230 234 240 244 249 254 258 262 266 269 270 270 273 280 281 285 289 290 293 295 297 297 298 295 291 288 287 288
245 242 239 239 243 244 245 242 239 237 236 237 237 236 233 230 230 231 230 228 226 227 225 229 232 230 229 234 240 245 252 256 260 264 266 269 269 273 280 279 284 288 287 288 291 291 292 295 296 294 290 283 284 286
240 244 242 239 239 241 242 241 237 235 231 230 230 230 230 232 231 230 229 228 227 225 224 230 236 241 241 245 249 254 255 259 265 271 273 275 276 281 284 289 292 292 291 289 289 291 294 295 298 293 288 283 283 285
237 238 243 240 238 238 239 239 236 233 230 227 226 224 223 225 225 223 224 225 224 225 226 234 241 244 247 250 254 257 260 264 270 275 275 273 277 285 290 290 289 289 290 293 293 294 295 295 295 291 283 282 286 285
241 239 238 242 241 237 237 237 235 232 231 229 228 226 227 228 227 227 229 232 236 237 239 241 245 247 247 252 256 260 264 268 271 271 273 274 279 287 290 292 294 293 293 294 296 296 295 292 287 284 277 279 284 286
241 239 236 238 242 240 235 235 234 232 231 230 230 229 228 230 233 233 235 238 239 237 237 238 242 247 250 254 259 263 267 271 272 275 274 274 281 283 285 287 288 290 291 293 295 296 295 295 287 279 276 275 281 287
230 232 241 236 239 241 234 234 233 232 231 230 230 230 230 231 233 234 235 235 237 237 239 241 244 248 254 258 263 267 270 274 275 275 273 278 280 282 282 282 284 288 292 293 294 293 294 290 284 277 276 278 284 284
229 233 237 239 239 237 234 230 232 231 231 230 229 230 230 231 232 233 235 236 237 239 243 247 251 254 257 262 265 271 274 276 278 275 276 278 278 280 283 284 287 289 291 291 290 291 286 278 281 282 280 275 278 283
225 226 230 234 236 237 233 229 229 228 229 230 230 231 230 232 232 234 236 239 242 245 248 252 256 260 264 268 272 273 276 276 272 274 277 279 282 285 286 287 290 292 293 293 289 287 275 276 280 282 280 276 279 276
217 219 220 224 234 231 228 226 227 229 227 228 231 232 231 232 233 234 237 241 245 249 253 257 260 264 268 272 273 271 269 272 275 275 278 283 287 287 287 289 290 289 288 287 286 282 271 269 273 278 279 278 283 274
212 218 215 217 224 223 224 222 226 229 230 229 227 229 230 231 233 235 239 243 247 251 255 259 264 271 277 274 270 268 270 275 277 281 285 287 287 287 287 286 287 285 283 284 280 281 274 268 265 267 275 283 284 273
209 212 210 210 211 213 218 220 218 217 220 221 225 229 231 233 235 236 240 243 248 253 258 265 269 269 265 269 272 277 282 283 284 286 286 286 287 287 285 282 280 281 282 280 276 276 272 263 259 260 267 277 274 270
207 209 212 214 212 216 212 212 210 211 217 220 223 228 230 232 235 237 241 245 250 255 259 259 261 268 270 272 276 279 280 281 282 284 285 286 286 284 278 277 277 276 274 275 272 270 273 270 263 253 258 268 282 269
204 208 220 223 214 207 203 202 207 213 219 223 223 225 229 233 237 241 245 248 251 251 250 258 266 270 277 280 280 282 285 285 287 288 288 286 283 281 278 272 266 265 263 267 265 268 274 268 251 267 250 264 247 250
199 202 215 216 195 197 192 201 208 209 218 226 227 229 232 236 241 246 248 248 249 257 266 271 274 277 277 280 284 286 287 291 292 293 291 287 282 276 273 269 266 258 257 260 258 268 267 261 241 250 257 247 253 254
195 197 198 192 193 199 201 208 210 215 220 225 229 232 237 241 240 242 250 257 266 271 273 272 275 279 284 288 290 293 297 297 296 296 293 290 287 275 268 266 261 256 253 252 251 256 273 272 254 249 250 251 249 251
193 194 199 201 198 187 198 206 212 217 223 228 229 233 236 239 245 257 268 274 273 271 273 277 282 287 288 290 296 298 303 313 319 318 312 306 295 279 270 267 262 255 253 248 246 255 260 263 258 243 243 253 254 265
188 190 196 199 198 201 211 220 224 223 227 234 238 243 253 258 264 265 264 268 271 275 279 284 285 283 285 289 289 285 326 335 339 338 337 329 307 285 267 259 259 253 250 246 243 254 271 269 261 247 241 246 258 259
180 190 191 190 196 201 212 216 221 233 234 240 246 246 246 249 257 264 267 270 271 274 278 279 275 267 269 274 290 311 321 320 320 328 332 339 346 342 301 277 265 258 251 243 257 262 260 255 256 263 253 247 248 259
189 188 187 190 194 199 200 207 221 229 228 232 242 252 257 260 262 261 263 266 266 271 280 278 250 256 260 273 291 298 305 311 309 308 305 307 310 315 308 302 281 274 272 264 256 253 251 249 261 257 252 249 255 262
190 190 194 196 200 205 214 223 235 246 244 251 256 257 250 249 257 262 262 251 244 259 279 282 247 254 274 279 288 299 301 301 303 296 300 304 301 298 302 287 288 288 274 264 251 249 251 250 259 258 254 260 265 265
190 192 192 190 199 209 223 230 225 223 229 233 233 231 235 238 250 250 245 244 238 257 270 277 273 272 279 284 291 296 297 297 296 293 292 290 286 288 296 298 305 289 262 259 256 247 241 246 257 260 258 255 260 263
176 187 200 212 217 215 201 201 209 219 224 229 229 233 237 251 275 250 250 254 254 260 278 282 281 285 287 288 290 291 291 290 291 293 295 297 295 291 288 287 286 283 274 273 266 254 249 258 260 255 251 253 258 261
152 161 167 169 171 185 198 207 212 211 202 194 197 204 212 215 223 230 242 260 279 286 287 291 294 293 292 293 293 291 292 292 295 301 303 301 297 291 283 275 276 274 268 273 275 271 268 267 262 256 260 264 267 263
150 152 159 172 182 181 178 174 171 170 167 169 179 191 196 207 237 272 293 294 300 303 309 305 305 306 306 302 297 293 289 287 290 297 303 305 303 294 278 270 268 267 267 261 261 262 259 268 270 272 275 269 264 261
148 151 149 148 146 143 145 145 141 139 145 158 195 219 249 268 253 266 279 270 286 319 324 322 320 317 314 313 310 307 304 297 288 291 304 308 304 298 288 281 279 273 268 264 270 271 272 271 272 272 267 264 267 274
Height
5782 5782 5783 5783 5783 5783 5784 5785 5786 5787 5788 5788 5789 5790 5792 5793 5795 5797 5800 5803 5806 5809 5811 5814 5817 5820 5822 5825 5828 5831 5833 5834 5836 5837 5839 5840 5842 5843 5844 5845 5846 5846 5847 5847 5847 5847 5848 5846 5845 5845 5843 5840 5838 5836
5777 5777 5778 5778 5779 5780 5781 5782 5784 5785 5786 5787 5787 5788 5789 5791 5793 5794 5797 5800 5802 5805 5809 5811 5814 5817 5819 5822 5824 5826 5828 5830 5832 5833 5835 5836 5837 5838 5839 5840 5840 5842 5842 5843 5843 5842 5840 5839 5838 5836 5834 5832 5830 5828
5771 5772 5772 5773 5775 5776 5777 5779 5780 5782 5783 5784 5785 5786 5787 5789 5790 5792 5794 5797 5799 5802 5806 5808 5811 5813 5815 5817 5820 5822 5824 5825 5827 5828 5830 5831 5832 5833 5834 5836 5836 5836 5836 5836 5836 5836 5834 5832 5830 5829 5827 5825 5823 5821
5765 5766 5767 5768 5770 5771 5773 5775 5777 5778 5780 5781 5783 5784 5785 5786 5788 5790 5791 5794 5797 5800 5802 5805 5807 5809 5811 5814 5816 5817 5819 5821 5822 5823 5824 5826 5827 5829 5830 5831 5830 5830 5830 5831 5831 5829 5827 5825 5823 5822 5819 5818 5816 5813
5757 5760 5762 5763 5764 5766 5768 5771 5773 5775 5776 5778 5779 5781 5782 5784 5786 5788 5789 5791 5794 5798 5799 5802 5804 5806 5808 5810 5812 5814 5815 5816 5817 5818 5820 5822 5823 5824 5825 5825 5824 5824 5825 5825 5824 5822 5820 5818 5816 5814 5812 5810 5809 5806
5749 5752 5755 5757 5758 5760 5763 5765 5768 5770 5772 5774 5775 5777 5779 5781 5783 5785 5787 5789 5790 5793 5796 5798 5801 5803 5804 5806 5808 5810 5811 5812 5814 5815 5816 5817 5818 5819 5819 5819 5817 5818 5819 5818 5816 5814 5812 5811 5809 5807 5805 5803 5801 5798
5741 5744 5747 5750 5752 5754 5756 5759 5762 5764 5767 5769 5771 5773 5775 5777 5779 5782 5784 5786 5787 5790 5792 5794 5796 5799 5801 5803 5804 5806 5808 5809 5810 5811 5812 5812 5813 5813 5813 5812 5811 5812 5811 5809 5808 5806 5804 5802 5800 5798 5796 5794 5792 5790
5732 5736 5739 5742 5745 5747 5750 5752 5755 5758 5760 5763 5765 5768 5770 5773 5775 5778 5779 5782 5784 5786 5788 5790 5793 5795 5797 5799 5800 5801 5803 5804 5805 5806 5807 5807 5806 5805 5806 5806 5805 5805 5804 5801 5800 5798 5796 5794 5791 5788 5786 5784 5783 5782
5723 5727 5730 5733 5736 5740 5743 5746 5748 5751 5754 5756 5759 5762 5765 5768 5771 5773 5775 5778 5780 5784 5785 5787 5788 5790 5793 5794 5795 5797 5798 5799 5800 5801 5801 5801 5797 5799 5801 5799 5799 5798 5796 5794 5792 5790 5788 5785 5782 5779 5776 5775 5775 5774
5714 5717 5721 5724 5728 5732 5735 5739 5742 5745 5748 5750 5753 5756 5760 5762 5765 5768 5771 5773 5776 5779 5782 5783 5784 5786 5789 5789 5791 5792 5793 5794 5794 5795 5795 5794 5789 5793 5793 5793 5792 5790 5788 5785 5783 5781 5779 5776 5773 5769 5767 5767 5768 5766
5705 5708 5712 5716 5719 5723 5727 5731 5735 5739 5742 5745 5748 5751 5755 5757 5761 5764 5766 5769 5772 5775 5777 5778 5780 5782 5783 5784 5785 5787 5787 5788 5789 5789 5788 5787 5783 5785 5786 5785 5784 5782 5780 5777 5775 5773 5771 5768 5765 5763 5761 5761 5760 5760
5695 5698 5702 5707 5710 5714 5718 5723 5727 5731 5735 5740 5743 5746 5749 5752 5756 5759 5762 5765 5767 5770 5772 5773 5775 5776 5777 5778 5779 5781 5781 5783 5783 5783 5781 5779 5778 5778 5777 5776 5775 5774 5772 5770 5767 5765 5763 5760 5758 5756 5755 5754 5753 5753
5685 5689 5692 5697 5701 5705 5709 5714 5719 5723 5727 5732 5736 5739 5743 5746 5750 5754 5757 5760 5761 5764 5766 5767 5768 5770 5771 5772 5773 5773 5774 5776 5776 5775 5774 5772 5772 5771 5769 5768 5767 5765 5763 5761 5760 5757 5755 5753 5751 5750 5749 5748 5747 5746
5675 5680 5683 5687 5692 5696 5700 5705 5710 5715 5720 5724 5728 5732 5736 5739 5744 5747 5750 5752 5755 5757 5759 5760 5762 5763 5764 5765 5766 5767 5767 5767 5768 5767 5765 5765 5763 5762 5761 5760 5759 5757 5755 5753 5751 5749 5747 5745 5743 5743 5742 5741 5740 5739
5664 5670 5675 5678 5683 5688 5691 5696 5701 5706 5711 5716 5720 5724 5729 5733 5737 5740 5742 5745 5747 5750 5752 5753 5754 5756 5757 5758 5760 5760 5759 5759 5758 5756 5755 5754 5753 5752 5751 5751 5750 5749 5747 5745 5743 5741 5739 5737 5736 5736 5735 5734 5733 5732
5655 5661 5665 5669 5674 5678 5682 5687 5692 5697 5702 5707 5712 5716 5721 5725 5729 5732 5735 5737 5740 5742 5744 5745 5746 5748 5749 5751 5753 5751 5750 5748 5746 5745 5745 5744 5744 5743 5742 5741 5740 5739 5737 5736 5734 5733 5731 5730 5729 5728 5728 5727 5727 5725
5645 5651 5657 5661 5666 5670 5674 5679 5684 5688 5693 5699 5705 5709 5713 5716 5720 5723 5727 5730 5732 5734 5736 5736 5738 5739 5741 5743 5744 5743 5739 5738 5737 5736 5735 5735 5734 5733 5732 5730 5729 5728 5727 5726 5724 5724 5723 5722 5721 5720 5720 5720 5719 5718
5636 5642 5649 5655 5660 5663 5667 5671 5676 5682 5687 5692 5695 5698 5702 5707 5712 5716 5719 5722 5724 5726 5727 5728 5730 5731 5733 5732 5729 5729 5730 5728 5727 5727 5727 5726 5725 5724 5722 5720 5718 5717 5716 5715 5714 5713 5714 5714 5713 5713 5713 5712 5711 5711
5629 5636 5642 5648 5654 5658 5663 5666 5671 5676 5680 5683 5687 5691 5696 5701 5704 5709 5711 5714 5716 5717 5719 5722 5722 5724 5721 5720 5720 5720 5720 5719 5718 5717 5716 5714 5713 5712 5710 5708 5706 5705 5705 5704 5704 5704 5704 5704 5703 5704 5704 5704 5703 5702
5623 5629 5635 5642 5648 5653 5658 5663 5666 5670 5674 5677 5682 5686 5689 5693 5697 5701 5704 5706 5708 5710 5712 5712 5712 5712 5713 5713 5711 5711 5709 5707 5705 5705 5704 5703 5701 5699 5697 5695 5693 5693 5693 5693 5692 5693 5694 5694 5694 5692 5695 5695 5695 5694
5617 5624 5630 5634 5641 5647 5654 5658 5662 5666 5669 5673 5676 5681 5684 5687 5690 5693 5696 5698 5701 5702 5703 5704 5705 5703 5702 5702 5701 5700 5699 5696 5695 5693 5691 5688 5686 5683 5682 5681 5680 5680 5682 5683 5682 5682 5683 5683 5683 5685 5685 5687 5687 5688
5614 5620 5626 5629 5636 5642 5649 5655 5659 5661 5666 5668 5672 5675 5678 5681 5684 5687 5689 5690 5691 5693 5696 5696 5695 5695 5694 5693 5692 5689 5687 5685 5682 5679 5676 5673 5671 5668 5666 5666 5667 5669 5671 5672 5673 5673 5674 5674 5675 5676 5678 5680 5681 5682
5611 5617 5623 5629 5634 5640 5647 5649 5654 5657 5661 5664 5668 5670 5672 5676 5678 5680 5681 5683 5685 5686 5687 5687 5686 5686 5685 5683 5681 5679 5677 5674 5670 5666 5662 5658 5657 5655 5653 5653 5654 5658 5661 5663 5664 5666 5667 5666 5666 5668 5670 5671 5673 5674
5611 5616 5621 5627 5632 5638 5642 5645 5649 5654 5657 5660 5662 5665 5668 5670 5672 5673 5674 5676 5677 5677 5678 5678 5678 5677 5675 5673 5673 5671 5668 5665 5661 5657 5652 5648 5646 5644 5644 5645 5646 5650 5653 5654 5656 5659 5660 5660 5661 5662 5664 5665 5666 5667
5610 5615 5620 5625 5630 5635 5638 5642 5646 5650 5654 5656 5658 5661 5663 5664 5665 5667 5668 5669 5669 5669 5669 5670 5670 5668 5668 5667 5666 5665 5663 5660 5658 5654 5650 5646 5642 5640 5640 5640 5642 5643 5645 5648 5650 5651 5652 5652 5653 5654 5655 5657 5659 5660
5609 5613 5620 5624 5629 5633 5637 5640 5643 5646 5648 5651 5653 5656 5657 5659 5660 5661 5662 5662 5662 5663 5663 5663 5663 5663 5663 5662 5662 5661 5659 5657 5654 5652 5649 5646 5643 5641 5639 5639 5639 5639 5640 5642 5643 5644 5645 5646 5646 5646 5647 5650 5650 5652
5607 5614 5619 5624 5629 5632 5636 5639 5641 5643 5645 5648 5650 5652 5653 5654 5655 5655 5656 5656 5657 5657 5658 5658 5658 5658 5658 5658 5657 5656 5654 5652 5650 5648 5646 5644 5643 5641 5639 5637 5636 5636 5636 5636 5636 5636 5638 5640 5641 5641 5642 5644 5644 5645
5609 5614 5619 5624 5627 5631 5635 5637 5640 5642 5644 5645 5647 5648 5649 5650 5650 5651 5652 5653 5653 5654 5654 5653 5653 5654 5654 5653 5651 5650 5648 5646 5645 5643 5641 5640 5638 5636 5635 5634 5633 5630 5630 5631 5631 5632 5633 5634 5635 5636 5637 5637 5638 5639
5610 5614 5619 5622 5626 5630 5633 5636 5639 5641 5642 5643 5644 5644 5645 5646 5647 5648 5649 5650 5651 5651 5651 5651 5651 5650 5649 5647 5646 5644 5642 5640 5639 5637 5635 5634 5631 5631 5629 5628 5626 5625 5625 5625 5626 5626 5627 5628 5628 5629 5629 5630 5631 5631
5612 5615 5619 5623 5626 5629 5632 5634 5637 5638 5639 5640 5641 5642 5644 5645 5646 5646 5647 5647 5647 5647 5648 5647 5646 5645 5643 5642 5639 5637 5636 5633 5632 5630 5628 5627 5625 5624 5623 5622 5621 5621 5621 5621 5621 5620 5620 5621 5621 5622 5622 5623 5623 5623
5613 5616 5620 5623 5626 5628 5630 5633 5635 5637 5638 5640 5641 5642 5642 5643 5643 5643 5643 5644 5645 5645 5644 5642 5640 5638 5637 5635 5633 5631 5628 5626 5625 5623 5621 5619 5617 5616 5614 5613 5613 5613 5613 5613 5612 5612 5611 5612 5613 5614 5615 5614 5614 5614
5616 5619 5622 5624 5626 5629 5630 5632 5635 5637 5638 5640 5641 5642 5642 5643 5643 5644 5644 5643 5642 5641 5639 5637 5635 5633 5631 5629 5626 5624 5623 5621 5618 5616 5614 5612 5609 5607 5605 5605 5605 5605 5605 5604 5605 5604 5605 5605 5605 5605 5604 5604 5605 5605
5618 5620 5623 5625 5628 5630 5632 5634 5636 5637 5639 5640 5641 5642 5643 5643 5642 5642 5641 5639 5639 5638 5635 5633 5630 5628 5626 5623 5621 5618 5616 5614 5612 5610 5607 5605 5603 5600 5598 5598 5598 5598 5598 5598 5598 5598 5597 5597 5597 5596 5596 5597 5597 5597